SL-12 R/B(2)

Satellite information

Favourite Embed

Satellite Type and Status

ROCKET BODYIN ORBIT

Key statistics

Satellite SL-12 R/B(2) at a glance.

Uptime

14053

Days in orbit

Revolutions

≈ 1.0

Per day

Orbit

OTHER

Other

Inclination

11.6

Latest

Satellite identification and parameters

Extended collection of information and parameters for SL-12 R/B(2).

Object identification

Identified? True

Debris? False

Object name: SL-12 R/B(2)

International designator: 1987-028D

Object number (NORAD): 17705

Object ID (CCSDS): 17705

Country: COMMONWEALTH OF INDEPENDENT STATES (CIS)

Current information (Y/N): Y

RCS size: LARGE

Orbital parameters

Period: 1441.864 minutes

Inclination: 11.5957 deg

SMA: 42277.544 km

Apoapsis: 36007.187 km

Periapsis: 35791.632 km

RAAN: 322.8591 deg

Eccentricy: 0.00254928

Argument of periapsis: 113.6251 deg

Mean anomaly: 258.9 deg

Mean motion: 0.99870709 rev/day

Mean motion (dot): -0.00000257 rev/day2

B* drag term: 0.0 1/REarth

Two-line elements (TLE)

Creation date: Sept. 6, 2025, 10:23 a.m.

Reference frame: TEME

Reference center: EARTH

Epoch: Sept. 6, 2025, 3:37 a.m. UTC

TLE line 0: 0 SL-12 R/B(2)

TLE line 1: 1 17705U 87028D 25249.15103978 -.00000257 00000-0 00000-0 0 9996

TLE line 2: 2 17705 11.5957 322.8591 0025493 113.6251 258.9000 0.99870709141630

Live tracking on map

Real-time ground track for satellite SL-12 R/B(2).

In-orbit conjunctions

A list of the most updated potential collisions computed for object SL-12 R/B(2).

Target Orbit TCA Probability of collision Miss distance Type
GORIZONT 20 OTHER 2024-09-09 21:17:05 TBA 3589.0 (m) PAYLOAD

Associated space launch

Geostationary communications satellite for military and governmental puposes

SL-12 R/B(2) was lifted into orbit during the mission ‘Proton-K/DM | Raduga 20’, on board a Proton-K/DM space rocket.

The launch took place on March 19, 1987, 3:54 a.m. from 200/40.

For more information about the launch, click the button.

Launch to space Proton-K/DM | Raduga 20
Proton-K/DM | Raduga 20

Agency: N/A

Status: Launch Successful

Launch date: March 19, 1987, 3:54 a.m. UTC

Rocket: Proton-K/DM

Launch pad: 200/40

Location: Baikonur Cosmodrome, Republic of Kazakhstan

...

Latest news about this satellite

There are no fresh news available about this satellite. Check back as we update our databases every day.


Newsletter sign-up

Weekly statistics, charts and insights to help you stay on top of the space industry.